Location: Plymouth
(43.7570°N, 71.6890°W)
Time: 22:26:57
(UTC-04:00)

Daily predictions for brighter satellites

Satellite Brightness Start Highest point End
(mag) Time Altitude Azimuth Time Altitude Azimuth Time Altitude Azimuth
Cosmos 1814 Rocket 4.0 18:58:20 10° S 19:03:23 61° ESE 19:08:28 10° NNE
Cosmos 1825 Rocket 3.6 18:58:59 10° N 19:03:26 87° E 19:07:52 10° S
Cosmos 990 Rocket 4.0 18:58:35 10° NNW 19:03:45 71° ENE 19:08:52 10° SSE
Cosmos 304 Rocket 4.3 19:01:19 10° SSE 19:05:39 35° ESE 19:10:01 10° NE
EO 1 Del DPAF 4.5 19:03:25 10° N 19:07:08 48° WNW 19:10:49 10° SSW
Cosmos 1707 2.8 19:04:52 10° N 19:08:46 59° E 19:12:39 10° SSE
Cosmos 1766 4.5 19:08:11 10° SE 19:11:11 21° E 19:14:11 10° NE
OPS 8737 4.5 19:10:18 10° SW 19:14:01 89° NW 19:17:23 10° NE
Cosmos 1544 4.5 19:12:52 10° SE 19:15:25 18° E 19:17:57 10° NE
Cosmos 1378 3.1 19:13:03 10° N 19:16:51 67° E 19:20:35 10° SSE
Envisat 4.3 19:18:23 10° ESE 19:22:06 21° ENE 19:25:51 10° NNE
Geosat 4.0 19:17:17 10° SSE 19:22:18 79° ENE 19:27:21 10° NNW
BREEZE M DEB (TANK) 3.4 19:13:26 10° WSW 19:22:47 61° NNW 19:25:50 10° ENE
ALOS 2.4 19:20:06 10° SSE 19:24:46 85° WSW 19:29:28 10° NNW
ATLAS 2AS CENTAUR R/B 4.3 19:19:22 10° NNW 19:26:00 26° NNE 19:32:12 11° E
USA 81 4.0 19:21:18 10° N 19:26:37 75° E 19:31:53 10° S
Cosmos 1271 Rocket 4.0 19:23:21 10° SSW 19:26:59 46° WNW 19:30:42 10° N
Cosmos 2150 Rocket 4.4 19:22:27 10° NNW 19:27:47 72° WSW 19:33:10 10° S
COSMO-SKYMED 1 3.9 19:25:57 10° N 19:30:05 45° WNW 19:34:14 10° SW
Cosmos 2181 Rocket 4.3 19:29:08 10° NNW 19:35:19 73° W 19:41:24 10° S
NOSS 3-1 (A) 4.1 19:28:44 10° NW 19:36:19 77° NE 19:44:43 10° SE
Cosmos 1758 Rocket 4.5 19:32:04 10° NNW 19:36:28 54° W 19:40:51 10° S
Cosmos 841 Rocket 3.4 19:33:49 10° SSW 19:38:57 81° ESE 19:44:07 10° NNE
Cosmos 1340 Rocket 4.4 19:36:39 10° NNW 19:40:29 40° W 19:44:19 10° SSW
Cosmos 1726 Rocket 4.3 19:38:01 10° SSW 19:42:17 55° W 19:46:34 10° N
FREGAT/IRIS 2.8 19:40:03 10° S 19:43:04 72° WSW 19:46:06 10° NNW
Cosmos 1805 4.0 19:41:12 10° SSE 19:44:36 29° E 19:48:01 10° NNE
NOSS 3-1 (C) 4.2 19:37:20 10° NW 19:44:56 79° WSW 19:53:22 10° SSE
Cosmos 2154 Rocket 4.4 19:42:12 10° SSE 19:47:51 38° E 19:53:34 10° NNE
Cosmos 2084 3.9 19:44:44 10° SW 19:48:44 57° NW 19:52:33 10° NNE
Cosmos 2074 Rocket 3.9 19:43:50 10° S 19:50:00 75° E 19:56:13 10° N
CZ-2D R/B 3.5 19:47:59 12° SE 19:51:19 47° ENE 19:55:00 10° N
Cosmos 1943 Rocket 4.3 19:49:09 10° NW 19:53:50 28° WSW 19:58:31 10° SSW
Resurs 1-3 4.0 19:50:43 16° SE 19:53:52 41° ENE 19:57:59 10° N
Cosmos 540 Rocket 3.4 19:50:54 10° S 19:55:53 58° ESE 20:00:55 10° NNE
Cosmos 1763 Rocket 4.3 19:53:20 10° SW 19:58:19 52° WNW 20:03:24 10° NNE
Meteor 1-24 Rocket 3.8 19:54:08 10° N 20:00:08 87° W 20:05:56 10° S
HJ-1C 3.6 19:57:16 10° S 20:00:35 72° WSW 20:03:58 10° NNW
Cosmos 2228 4.3 20:03:51 10° SSW 20:08:00 44° WNW 20:12:10 10° N
Cosmos 1697 Rocket 4.1 20:07:06 10° N 20:11:13 20° NE 20:12:25 19° ENE
Cosmos 1980 Rocket 4.1 20:09:28 10° NNE 20:12:14 14° NE 20:13:21 13° NE
SJ-6B 3.7 20:09:28 10° S 20:13:21 49° W 20:17:11 10° NNW
Cosmos 1953 2.7 20:17:35 40° E 20:17:35 40° E 20:21:12 10° NNE
Nadezhda 3 Rocket 3.9 20:11:11 10° N 20:17:29 67° E 20:23:05 13° SSE
Resurs 01 Rocket 1.5 20:14:19 19° SSE 20:17:29 79° ENE 20:21:56 10° N
GP-B 3.0 20:15:29 10° N 20:19:55 70° E 20:23:34 15° S
Meteor 2-8 Rocket 4.5 20:15:31 10° N 20:21:40 81° W 20:27:46 10° S
Cosmos 1812 Rocket 3.5 20:17:17 10° S 20:21:44 83° E 20:26:14 10° N
Cosmos 2285 Rocket 4.5 20:22:15 10° SSE 20:28:01 37° E 20:33:50 10° NE
Spot 2 Rocket 3.4 20:24:52 21° SSE 20:28:17 85° ENE 20:33:21 10° NNW
BREEZE-M DEB (TANK) 3.5 20:31:53 10° NW 20:32:50 21° NW 20:32:50 21° NW
USA 186 3.8 20:36:34 17° NNW 20:36:34 17° NNW 20:37:16 10° NNW
Meteor 2-19 Rocket 4.4 20:29:19 10° S 20:35:22 83° W 20:41:28 10° N
Cosmos 292 Rocket 3.6 20:34:58 10° S 20:39:45 68° ESE 20:44:36 10° NNE
Cosmos 1295 Rocket 4.4 20:37:06 18° SSE 20:41:37 62° E 20:47:36 10° NNE
ARGOS 4.4 20:42:32 24° NE 20:42:32 24° NE 20:46:08 10° N
Milstar 3 Cent rocket 4.0 20:41:02 10° SSW 20:42:10 12° S 20:42:10 12° S
YAOGAN 6 3.9 20:46:01 30° N 20:46:01 30° N 20:48:04 10° N
COSMOS 2406 4.1 20:40:43 10° SW 20:46:15 51° WNW 20:51:52 10° NNE
Cosmos 783 Rocket 4.3 20:41:42 10° SSW 20:46:55 87° ESE 20:52:09 10° NNE
Okean 3 Rocket 3.4 20:42:31 10° N 20:46:57 75° ENE 20:46:57 75° ENE
MOS 1-B Rocket 4.1 20:43:09 15° S 20:48:21 71° WSW 20:54:00 10° NNW
Cosmos 1809 Rocket 4.4 20:46:49 43° SE 20:48:32 58° E 20:54:31 10° NNE
Helios 1A 4.2 20:50:31 31° NNE 20:50:31 31° NNE 20:53:02 10° N
ISS -1.3 20:46:20 10° SW 20:47:03 16° SW 20:47:03 16° SW
ERS-1 Rocket 4.0 20:52:01 31° NE 20:52:01 31° NE 20:55:26 10° N
SL-8 Rocket 4.0 20:50:55 52° ESE 20:51:20 53° E 20:57:18 10° NNE
Cosmos 1674 3.4 20:54:51 10° NNW 20:58:04 51° WNW 20:58:04 51° WNW
Cosmos 2369 3.5 20:53:08 10° NNW 20:58:49 71° ENE 20:59:14 68° E
BREEZE-M DEB (TANK) 2.8 20:50:05 10° WSW 20:59:09 82° SSE 20:59:22 79° ESE
Meteor 1-21 Rocket 4.3 20:54:42 10° NNW 21:00:27 75° W 21:02:33 40° S
Envisat 3.6 20:57:59 25° SSW 21:00:44 53° W 21:05:44 10° NNW
Cosmos 1758 4.2 20:59:36 27° SW 21:01:26 48° WNW 21:05:20 10° N
Meteor 2-15 4.3 20:59:09 10° N 21:05:14 76° E 21:05:56 68° SE
Cosmos 1939 Rocket 4.0 21:14:51 40° WNW 21:14:51 40° WNW 21:17:58 10° NNW
Meteor 2-21 Rocket 4.4 21:15:52 70° ENE 21:15:52 70° ENE 21:21:36 10° NNE
H-2A R/B 3.7 21:18:39 22° NNE 21:18:39 22° NNE 21:20:49 10° N
ATLAS 2AS CENTAUR R/B 2.9 21:10:25 10° NW 21:18:30 73° NE 21:19:38 63° ESE
Terra 4.4 21:29:28 10° NNE 21:29:28 10° NNE 21:29:28 10° NNE
Cosmos 2278 4.0 21:27:47 10° NNW 21:33:05 64° W 21:33:05 64° W
Cosmos 2322 Rocket 4.1 21:42:00 10° N 21:44:25 19° NNE 21:44:25 19° NNE
Cosmos 1697 Rocket 3.5 21:50:09 10° NNW 21:54:09 47° NW 21:54:09 47° NW
Cosmos 1980 Rocket 3.3 21:51:42 10° NNW 21:55:07 37° N 21:55:07 37° N
FALCON 9 R/B 4.2 21:54:01 10° WSW 21:55:15 19° SW 21:55:15 19° SW
SL-16 R/B 4.1 22:18:54 10° NNW 22:21:08 22° N 22:21:08 22° N
CZ-3A R/B 4.2 22:32:50 10° WNW 22:48:58 66° N 22:48:58 66° N
ATLAS 2AS CENTAUR R/B 4.5 23:02:25 10° NW 23:07:05 26° W 23:07:05 26° W
